Regional Weather Roundup
Issued by NWS Boston, MA

Current Version | Previous Version | Text Only | Print | Product List | Glossary On
Versions: 1 2 3 4 5 6 7 8 9 10 11 12 13 14 15 16 17 18 19 20 21 22 23 24 25 26 27 28 29 30 31 32 33 34 35 36 37 38 39 40 41 42 43 44 45 46 47 48 49 50
000 ASUS41 KBOX 282304 RWRBOX REGIONAL WEATHER ROUNDUP NATIONAL WEATHER SERVICE BOSTON/NORTON MA 700 PM EDT THU MAY 28 2020 NOTE: "FAIR" INDICATES FEW OR NO CLOUDS BELOW 12,000 FEET WITH NO SIGNIFICANT WEATHER AND/OR OBSTRUCTIONS TO VISIBILITY. MAZALL-290000- EASTERN MASSACHUSETTS CITY SKY/WX TMP DP RH WIND PRES REMARKS BOSTON PTSUNNY 74 63 68 S15 30.13F BEVERLY PTSUNNY 77 63 61 SW17G24 30.11F LAWRENCE MOSUNNY 77 64 64 S12G20 30.12F BEDFORD PTSUNNY 76 64 66 S12 30.11F BLUE HILL N/A 72 63 73 S15G22 30.14F NORWOOD PTSUNNY 76 64 66 S9 30.13F MARSHFIELD CLOUDY 75 66 73 SW14 30.15S PLYMOUTH CLOUDY 71 65 81 SW13 30.16F TAUNTON PTSUNNY 73 66 78 S7 30.16F NEW BEDFORD CLOUDY 68 66 93 SW12 30.17F $$ MAZALL-290000- CAPE COD AND THE ISLANDS CITY SKY/WX TMP DP RH WIND PRES REMARKS FALMOUTH CLOUDY 72 66 83 SW12G22 30.19S HYANNIS CLOUDY 66 66 100 S10 30.18S CHATHAM CLOUDY 64 59 83 SW7 30.21S PROVINCETOWN CLOUDY 65 61 87 SW12 30.18S NANTUCKET CLOUDY 60 58 92 S9 30.21S MARTHAS VNYRD CLOUDY 65 62 90 SW10 30.19F $$ MAZALL-290000- CENTRAL AND WESTERN MASSACHUSETTS CITY SKY/WX TMP DP RH WIND PRES REMARKS WORCESTER CLOUDY 71 64 78 S13 30.15F FITCHBURG CLOUDY 76 63 64 S12 30.12S ORANGE CLOUDY 73 65 75 S15G22 30.12S SPRINGFIELD LGT RAIN 73 66 77 S12 30.09F WESTFIELD CLOUDY 73 66 78 S16 30.09F NORTH ADAMS CLOUDY 72 66 81 E9G20 30.06F PITTSFIELD CLOUDY 72 66 81 VRB3 30.08F $$ RIZALL-290000- RHODE ISLAND CITY SKY/WX TMP DP RH WIND PRES REMARKS PROVIDENCE CLOUDY 69 65 86 SE10 30.17S NEWPORT CLOUDY 66 62 87 S7 30.18S BLOCK ISLAND CLOUDY 63 61 93 S13 30.18F SMITHFIELD CLOUDY 72 67 84 SW8 30.16F WESTERLY CLOUDY 67 60 78 S8 30.17F $$ CTZALL-290000- CONNECTICUT CITY SKY/WX TMP DP RH WIND PRES REMARKS BRADLEY INTL DRIZZLE 73 66 78 S15 30.10F HARTFORD LGT RAIN 72 68 87 S13 30.11F FOG BRIDGEPORT CLOUDY 69 66 90 S12 30.11F DANBURY LGT RAIN 69 68 96 S8 30.11F FOG GROTON CLOUDY 62 60 93 CALM 30.15F FOG NEW HAVEN CLOUDY 68 67 96 S8 30.12F FOG CHESTER LGT RAIN 68 68 100 S8 30.15F VSB 3/4 MERIDEN LGT RAIN 69 67 93 S9 30.12S FOG WILLIMANTIC CLOUDY 71 68 90 S8 30.14F OXFORD LGT RAIN 68 68 100 S12G18 30.13F FOG $$ MEZ002-015-021-024-NHZ003-005-008-011-012-014-VTZ005-008-290000- NORTHERN NEW ENGLAND CITY SKY/WX TMP DP RH WIND PRES REMARKS PORTLAND ME MOSUNNY 74 62 66 S12 30.05S BANGOR ME PTSUNNY 74 62 66 S9 30.00S CONCORD NH PTSUNNY 77 64 64 S10 30.09S MANCHESTER NH PTSUNNY 78 64 61 S12 30.09S NASHUA NH PTSUNNY 76 68 76 VRB6 30.11F PORTSMOUTH NH MOSUNNY 78 63 60 SW13 30.08S JAFFREY NH CLOUDY 73 63 70 S12 30.13F KEENE NH CLOUDY 74 66 76 S10G17 30.09F BURLINGTON VT PTSUNNY 81 64 56 S15 29.96F MT. WASHINGTON FOG 54 54 100 SW31G41 N/A VSB 1/8 $$ NYZ052-076-290000- EASTERN NEW YORK CITY SKY/WX TMP DP RH WIND PRES REMARKS ALBANY CLOUDY 77 65 66 SE15G26 30.01F NEW YORK CITY DRIZZLE 69 64 84 S12 30.08S $$ ANZALL-290000- MARINE OBSERVATIONS STATION/POSITION TIME TEMP WIND PRES VSBY WAVE AIR SEA DIR/SP/G HT/PER (UTC) (F) (DEG/KT/KT) (MB) (MI) (FT/S) BOSTON BUOY 2250 65 57 200/ 12/ 14 1019.7R 2/ 4 BUZZARDS BAY 2200 190/ 15/ 16 1023.1F NANTUCKET SOUND 2250 59 58 200/ 8/ 12 1022.0F 1/ 3 MASS BAY-STELLWA 2204 60 45 220/ 10/ 10 1018.2S 1 7/8 2/ 6 ISLE OF SHOALS 2200 76 230/ 24/ 25 1018.7F S OF BLOCK IS 2230 56 N/A 3/ 7 $$ ......................KEY......................... SKY/WX - SKY CONDITION/PRESENT WEATHER TMP - TEMPERATURE IN FAHRENHEIT DWPT - DEWPOINT IN FAHRENHEIT RH - RELATIVE HUMIDITY IN PERCENT WIND - DIRECTION AND SPEED IN MPH PRES - MEAN SEA LEVEL PRESSURE IN INCHES OF HG WCI - WIND CHILL INDEX VSB - VISIBILITY IN MILES HX - HEAT INDEX TC - TEMPERATURE IN CELSIUS VRB - VARIABLE WIND DIRECTION N/A - NOT AVAILABLE

USA.gov is the U.S. government's official web portal to all federal, state and local government web resources and services.